Location: Chillicothe
(39.7950°N, 93.5520°W)
Time: 04:12:43
(UTC-06:00)

BEESAT - Pass Details

Date: 16 November 2019
Orbit: 700 x 709 km, 98.6° (Epoch: 09 December)

Event Time Altitude Azimuth Distance (km) Brightness Sun altitude
Rises 03:46:11 0° 129° (SE) 3,080 ? -37.1°
Reaches altitude 10° 03:48:53 10° 114° (ESE) 2,165 ? -36.6°
Maximum altitude 03:52:25 21° 65° (ENE) 1,540 ? -35.9°
Enters shadow 03:53:19 20° 49° (NE) 1,589 ? -35.8°
